TimeCDT,TemperatureF,Dew PointF,Humidity,Sea Level PressureIn,VisibilityMPH,Wind Direction,Wind SpeedMPH,Gust SpeedMPH,PrecipitationIn,Events,Conditions,WindDirDegrees,DateUTC
12:28 AM,37.4,37.4,100,30.14,9.0,NW,10.4,-,N/A,Rain,Light Rain,310,2013-05-03 05:28:00
12:53 AM,37.4,37.4,100,30.14,7.0,NW,11.5,-,N/A,Rain,Rain,310,2013-05-03 05:53:00
12:58 AM,36.5,36.5,100,30.16,8.0,NW,12.7,-,0.04,Rain,Light Rain,320,2013-05-03 05:58:00
1:48 AM,35.6,35.6,100,30.11,6.0,WNW,10.4,-,N/A,Rain,Rain,300,2013-05-03 06:48:00
1:58 AM,35.8,35.8,100,30.15,9.0,NW,9.2,-,0.06,Rain,Light Rain,310,2013-05-03 06:58:00
2:03 AM,35.6,35.6,100,30.11,10.0,NW,10.4,-,N/A,Rain,Light Rain,310,2013-05-03 07:03:00
2:53 AM,35.6,35.6,100,30.09,8.0,NNW,10.4,-,N/A,Rain,Light Rain,330,2013-05-03 07:53:00
2:58 AM,35.6,35.6,100,30.12,8.0,NW,9.2,-,0.03,Rain,Light Rain,320,2013-05-03 07:58:00
3:03 AM,35.6,35.6,100,30.09,6.0,NNW,10.4,-,N/A,Rain,Light Rain,340,2013-05-03 08:03:00
3:33 AM,35.6,35.6,100,30.08,10.0,NW,8.1,-,N/A,Rain,Light Rain,310,2013-05-03 08:33:00
3:38 AM,35.6,35.6,100,30.08,9.0,NW,10.4,-,N/A,Rain,Light Rain,320,2013-05-03 08:38:00
3:48 AM,35.6,35.6,100,30.08,9.0,NW,10.4,-,N/A,Rain,Light Rain,320,2013-05-03 08:48:00
3:58 AM,35.1,35.1,100,30.09,7.0,NW,11.5,-,0.04,Rain,Rain,320,2013-05-03 08:58:00
4:08 AM,35.6,35.6,100,30.06,10.0,NW,10.4,-,N/A,Rain,Light Rain,320,2013-05-03 09:08:00
4:18 AM,35.6,35.6,100,30.06,10.0,NW,8.1,-,N/A,Rain,Light Rain,310,2013-05-03 09:18:00
4:58 AM,34.5,34.5,100,30.08,8.0,NW,9.2,-,0.07,Rain,Light Rain,320,2013-05-03 09:58:00
5:28 AM,33.8,33.8,100,30.05,10.0,NW,9.2,-,N/A,Rain,Light Rain,310,2013-05-03 10:28:00
5:58 AM,34.3,34.3,100,30.08,7.0,WNW,6.9,-,0.02,Rain,Light Rain,300,2013-05-03 10:58:00
6:53 AM,33.8,33.8,100,30.03,8.0,NW,10.4,-,N/A,Rain,Light Rain,320,2013-05-03 11:53:00
6:58 AM,34.3,34.3,100,30.05,8.0,NW,11.5,-,0.08,Rain,Light Rain,320,2013-05-03 11:58:00
7:52 AM,35.6,35.6,100,30.01,10.0,NNW,10.4,-,N/A,,Overcast,330,2013-05-03 12:52:00
7:57 AM,35.6,35.6,100,30.01,10.0,NNW,11.5,-,N/A,,Light Drizzle,330,2013-05-03 12:57:00
7:58 AM,35.6,35.6,100,30.05,10.0,NNW,11.5,-,0.02,,Light Drizzle,330,2013-05-03 12:58:00
8:58 AM,35.2,35.2,100,30.04,10.0,NNW,10.4,-,0.01,,Light Drizzle,340,2013-05-03 13:58:00
9:01 AM,35.6,35.6,100,30.01,10.0,NNW,11.5,-,N/A,,Overcast,340,2013-05-03 14:01:00
9:11 AM,35.6,35.6,100,30.00,10.0,NNW,8.1,-,N/A,,Light Drizzle,330,2013-05-03 14:11:00
9:31 AM,35.6,35.6,100,30.00,6.0,NW,6.9,-,N/A,Rain,Light Rain,320,2013-05-03 14:31:00
9:58 AM,35.2,35.2,100,30.02,6.0,NW,9.2,-,0.01,Rain,Light Rain,310,2013-05-03 14:58:00
10:38 AM,35.6,35.6,100,29.98,10.0,NW,11.5,-,N/A,Rain,Light Rain,320,2013-05-03 15:38:00
10:58 AM,36.3,36.3,100,30.00,10.0,NW,10.4,-,0.03,,Light Drizzle,310,2013-05-03 15:58:00
11:23 AM,37.4,37.4,100,29.98,10.0,NW,10.4,-,N/A,,Overcast,320,2013-05-03 16:23:00
11:28 AM,37.4,37.4,100,29.97,10.0,NW,9.2,-,N/A,,Overcast,310,2013-05-03 16:28:00
11:55 AM,37.4,37.4,100,29.96,10.0,NW,6.9,-,N/A,,Overcast,310,2013-05-03 16:55:00
11:58 AM,36.9,36.9,100,30.00,9.0,NW,10.4,-,0.00,,Overcast,310,2013-05-03 16:58:00
12:58 PM,37.4,37.4,100,29.99,6.0,NW,8.1,-,0.01,,Overcast,310,2013-05-03 17:58:00
1:00 PM,37.4,37.4,100,29.96,7.0,NW,8.1,-,N/A,,Light Drizzle,310,2013-05-03 18:00:00
1:58 PM,37.8,37.8,100,29.96,7.0,WNW,10.4,-,0.00,,Light Drizzle,300,2013-05-03 18:58:00
2:55 PM,37.0,37.0,100,29.98,7.0,NW,11.5,-,0.01,Rain,Light Rain,310,2013-05-03 19:55:00
2:58 PM,37.0,37.0,100,29.98,8.0,NW,10.4,-,0.01,,Light Drizzle,310,2013-05-03 19:58:00
3:58 PM,37.0,37.0,100,29.94,6.0,WNW,10.4,-,0.00,,Light Drizzle,290,2013-05-03 20:58:00
4:19 PM,37.4,37.4,100,29.91,10.0,WNW,10.4,-,N/A,,Overcast,300,2013-05-03 21:19:00
4:24 PM,37.4,37.4,100,29.91,9.0,WNW,12.7,-,N/A,,Light Drizzle,290,2013-05-03 21:24:00
4:34 PM,35.6,35.6,100,29.89,9.0,WNW,10.4,-,N/A,,Overcast,290,2013-05-03 21:34:00
4:39 PM,35.6,35.6,100,29.90,10.0,WNW,10.4,-,N/A,,Overcast,300,2013-05-03 21:39:00
4:40 PM,35.6,35.6,100,29.90,9.0,WNW,11.5,-,N/A,,Light Drizzle,290,2013-05-03 21:40:00
4:45 PM,35.6,35.6,100,29.90,9.0,WNW,9.2,-,N/A,,Light Drizzle,290,2013-05-03 21:45:00
4:50 PM,35.6,35.6,100,29.90,9.0,WNW,9.2,-,N/A,,Overcast,290,2013-05-03 21:50:00
4:58 PM,36.5,36.5,100,29.94,10.0,WNW,10.4,-,0.00,,Overcast,290,2013-05-03 21:58:00
5:20 PM,35.6,35.6,100,29.90,10.0,WNW,8.1,-,N/A,,Light Drizzle,290,2013-05-03 22:20:00
5:58 PM,36.1,36.1,100,29.94,7.0,WNW,9.2,-,0.01,,Light Drizzle,300,2013-05-03 22:58:00
6:58 PM,35.6,35.6,100,29.94,6.0,WNW,6.9,-,0.01,,Drizzle,290,2013-05-03 23:58:00
7:33 PM,35.6,35.6,100,29.89,8.0,WNW,8.1,-,N/A,Rain,Light Rain,290,2013-05-04 00:33:00
7:53 PM,35.6,35.6,100,29.90,10.0,West,9.2,-,N/A,,Light Drizzle,280,2013-05-04 00:53:00
7:58 PM,34.9,34.9,100,29.94,10.0,WNW,9.2,-,0.01,,Light Drizzle,290,2013-05-04 00:58:00
8:00 PM,35.6,35.6,100,29.90,10.0,WNW,8.1,-,N/A,,Overcast,300,2013-05-04 01:00:00
8:14 PM,35.6,35.6,100,29.90,10.0,West,9.2,-,N/A,,Light Drizzle,280,2013-05-04 01:14:00
8:58 PM,34.2,34.2,100,29.94,10.0,WNW,8.1,-,0.00,,Light Drizzle,290,2013-05-04 01:58:00
9:00 PM,33.8,33.8,100,29.90,10.0,WNW,6.9,-,N/A,,Overcast,290,2013-05-04 02:00:00
9:02 PM,33.8,33.8,100,29.90,10.0,West,5.8,-,N/A,,Light Drizzle,280,2013-05-04 02:02:00
9:22 PM,33.8,33.8,100,29.90,10.0,West,8.1,-,N/A,,Light Drizzle,280,2013-05-04 02:22:00
9:32 PM,33.8,33.8,100,29.90,10.0,West,6.9,-,N/A,,Light Drizzle,270,2013-05-04 02:32:00
9:39 PM,33.8,33.8,100,29.90,10.0,West,6.9,-,N/A,,Overcast,260,2013-05-04 02:39:00
9:47 PM,33.8,33.8,100,29.90,10.0,WSW,4.6,-,N/A,Rain,Light Rain,240,2013-05-04 02:47:00
9:57 PM,33.8,33.8,100,29.90,10.0,Variable,4.6,-,N/A,Rain,Light Rain,0,2013-05-04 02:57:00
9:58 PM,34.0,34.0,100,29.94,10.0,Variable,3.5,-,0.01,Rain,Light Rain,0,2013-05-04 02:58:00
10:24 PM,32.0,32.0,100,29.89,10.0,West,5.8,-,N/A,Rain-Snow,Light Rain,260,2013-05-04 03:24:00
10:54 PM,32.0,32.0,100,29.88,10.0,West,6.9,-,N/A,,Overcast,270,2013-05-04 03:54:00
10:58 PM,33.4,33.4,100,29.92,10.0,West,5.8,-,0.00,,Overcast,270,2013-05-04 03:58:00
11:48 PM,32.0,32.0,100,29.87,10.0,WSW,4.6,-,N/A,,Overcast,250,2013-05-04 04:48:00
11:58 PM,33.6,33.6,100,29.91,10.0,WSW,4.6,-,N/A,,Overcast,240,2013-05-04 04:58:00